Location: Ay?beleni
(36.6500°N, 30.3000°E)
Time: 04:58:55
(UTC+00:00)

Cosmos 1544 Rocket - Pass Details

Date: 16 October 2021
Orbit: 603 x 631 km, 82.5° (Epoch: 08 December)

Event Time Altitude Azimuth Distance (km) Brightness Sun altitude
Rises 16:40:40 0° 174° (S) 2,896 6.9 -16.7°
Reaches altitude 10° 16:42:56 10° 169° (S) 1,997 6.0 -17.2°
Maximum altitude 16:47:14 52° 93° (E) 784 3.6 -18.0°
Drops below altitude 10° 16:51:35 10° 17° (NNE) 2,018 6.0 -18.9°
Sets 16:53:52 0° 13° (NNE) 2,931 6.9 -19.4°
